sat.trackr.live / text

‹ back to catalog

STARLINK-32484

NORAD 62160 · 2024-224X

PAYLOAD ACTIVE UNKNOWN

§ Identity

Operator
Country
US
Launch date
2024-11-30
Launch site
AFETR
Launch vehicle
Mass (kg)
RCS (m²)

Purposes: comms

External: N2YO · Heavens-Above · Gunter

§ Orbital elements

Epoch: 2026-09-21T01:03:33.954336Z

Period
94.27 min
Inclination
43.0022°
Eccentricity
0.0001704
Mean motion
15.27598358 rev/d
Perigee alt
481.8 km
Apogee alt
484.2 km
Semi-major
6,861.1 km
B*
3.7984e-4
RAAN
135.1251°
Arg perigee
263.6033°
Mean anomaly
96.4625°
Rev number
10,235

§ Raw data

STARLINK-324841 62160U 24224X   26264.04414299  .00010210  00000+0  37984-3 0  99992 62160  43.0022 135.1251 0001704 263.6033  96.4625 15.27598358102357

JSON: /api/v1/satellites/62160 · /tle

For live sub-satellite position, see the globe view (requires WebGL).

§ Visibility from observer

Set your observer location to see the next 7 days of passes ≥ 10°. The values pass through the URL so the page stays shareable.

No JS? Fill the form by hand. The geolocation button needs JavaScript.